This is the latest recevied weather packets stored in our database for station/object KJ5PEC-13. If no packets are shown the sender has not sent any weather packets the latest 10 day(s).
| Time | Temp. | Humidity | Pressure | Rain* | Wind** | Luminosity | Snow |
|---|---|---|---|---|---|---|---|
| 1788564513 | 23.89° C | 27% | 1028.2 hPa | 0 mm | - | 111 W/m² | - |
| 1788564209 | 23.89° C | 27% | 1028.4 hPa | 0 mm | - | 107 W/m² | - |
| 1788563905 | 23.89° C | 27% | 1028.1 hPa | 0 mm | - | 125 W/m² | - |
| 1788563605 | 23.89° C | 27% | 1028.4 hPa | 0 mm | - | 116 W/m² | - |
| 1788563300 | 23.89° C | 27% | 1028.1 hPa | 0 mm | - | 136 W/m² | - |
| 1788562998 | 23.33° C | 27% | 1028.2 hPa | 0 mm | - | 238 W/m² | - |
| 1788562694 | 23.33° C | 28% | 1028.1 hPa | 0 mm | - | 127 W/m² | - |
| 1788562392 | 23.33° C | 28% | 1028.1 hPa | 0 mm | - | 124 W/m² | - |
| 1788562092 | 23.33° C | 29% | 1028.2 hPa | 0 mm | - | 107 W/m² | - |
| 1788561788 | 23.33° C | 30% | 1028.1 hPa | 0 mm | - | 91 W/m² | - |
| 1788561487 | 23.33° C | 33% | 1028 hPa | 0 mm | - | 115 W/m² | - |
| 1788561187 | 23.33° C | 28% | 1028.1 hPa | 0 mm | - | 123 W/m² | - |
| 1788560884 | 23.89° C | 30% | 1028.2 hPa | 0 mm | - | 135 W/m² | - |
| 1788560579 | 24.44° C | 26% | 1028.2 hPa | 0 mm | - | 146 W/m² | - |
| 1788560279 | 24.44° C | 26% | 1028.2 hPa | 0 mm | - | 120 W/m² | - |
| 1788559978 | 24.44° C | 26% | 1028.4 hPa | 0 mm | - | 104 W/m² | - |
| 1788559674 | 24.44° C | 25% | 1028.4 hPa | 0 mm | - | 118 W/m² | - |
| 1788559373 | 24.44° C | 26% | 1028.2 hPa | 0 mm | - | 150 W/m² | - |
| 1788559068 | 24.44° C | 25% | 1028.2 hPa | 0 mm | - | 140 W/m² | - |
| 1788558764 | 24.44° C | 25% | 1028 hPa | 0 mm | - | 151 W/m² | - |
| 1788558459 | 24.44° C | 25% | 1028.1 hPa | 0 mm | - | 168 W/m² | - |
| 1788558155 | 25° C | 24% | 1028.1 hPa | 0 mm | - | 171 W/m² | - |
| 1788557853 | 25.56° C | 24% | 1028.1 hPa | 0 mm | - | 157 W/m² | - |
| 1788557549 | 26.67° C | 23% | 1028.1 hPa | 0 mm | - | 203 W/m² | - |
| 1788557245 | 27.22° C | 22% | 1028.2 hPa | 0 mm | - | 188 W/m² | - |
* Rain latest hour (hover to see other rain measurements)
** Current wind speed in m/s (hover to see current wind gust speed)